Location: Bamobli
(6.6379°N, 10.9396°W)
Time: 06:08:51
(UTC+00:00)

PSAT 2 - Visible Passes

Search period start: 11 May 2021 00:00
Search period end: 21 May 2021 00:00
Orbit: 301 x 755 km, 28.5° (Epoch: 10 May)

Date Brightness Start Highest point End Pass type
(mag) Time Alt. Az. Time Alt. Az. Time Alt. Az.
11 May ? 20:34:12 10° NW 20:37:12 34° N 20:37:12 34° N visible
12 May ? 20:19:54 10° NW 20:24:10 57° NNE 20:24:10 57° NNE visible
13 May ? 20:05:39 10° WNW 20:10:12 79° NNE 20:11:09 51° ESE visible
14 May ? 19:51:26 10° WNW 19:56:09 78° SSW 19:58:09 30° SE visible
15 May ? 19:37:15 10° WNW 19:42:03 59° SSW 19:45:08 18° SE visible
16 May ? 19:23:08 10° WNW 19:27:56 46° SSW 19:32:08 10° SE visible
17 May ? 19:09:04 10° W 19:13:46 36° SSW 19:17:59 10° SE visible
